Погода в Докучаево

Украина / Кировоградская область     47°49′47″N   32°37′53″E
темп.,
°C
ветер,
м/с
пор.,
м/с
влажн.,
%
обл.,
%
осадки,
мм/ч
давл.,
гПа
погр.,
м
20 апреля, вт
вт2000:00+8ссв487389 0.0 1012182
03:00+8св4776100 0.0 1010156
06:00+7ссв3778100 0.0 1009169
09:00+10ссв5668100 0.0 1008401
12:00+12ссв4561100 0.1 10071138
15:00+14ссз5651100 0.2 10061578
18:00+12ссз4760100 0.1 1007422
21:00+11зсз386238 0.1 1008224
21 апреля, ср
ср2100:00+9з367111 0.0 1010148
03:00+6з338399 0.0 101138
06:00+5з22855 0.0 101218
09:00+11зюз336412 0.0 1014476
12:00+14з455597 0.7 10141692
15:00+13з456182 1.3 10141233
18:00+14з455033 0.1 10151440
21:00+10зюз22746 0.4 101615
22 апреля, чт
чт2200:00+9юз358426 0.0 101779
03:00+7юз34905 0.0 101868
06:00+7ююз33905 0.0 101930
09:00+13ю45635 0.0 1019405
12:00+17ююз564267 0.0 10192399
15:00+16ююз564494 0.0 10201503
18:00+17ююз56455 0.0 10191406
21:00+11ююз49690 0.0 1021167
23 апреля, пт
пт2300:00+9ю49835 0.0 1021190
03:00+7ю4109122 0.1 1021203
06:00+7ю4109332 0.0 1021219
09:00+13ю69625 0.0 1020575
12:00+17ююз78461 0.0 10201523
15:00+18ююз894559 0.0 10182060
18:00+16ююз79511 0.0 10181355
21:00+11ююз511700 0.0 1018311
24 апреля, сб
сб2400:00+9ююз41084100 0.0 1018254
03:00+9юз2588100 0.0 1017199
06:00+7ссз5886100 0.0 1017426
09:00+6с7885100 0.6 1019592
12:00+8ссв567292 1.6 1020992
15:00+14с45427 1.7 10181900
18:00+14ссз443980 0.0 10181988
21:00+10ссв5957100 0.0 1019338